7 * 24
多渠道服务支持
O3B PFM是O3B中圆地球轨道通信星座的首颗验证卫星,于2013年6月25日发射入轨。作为“中地球轨道卫星”星座的开路先锋,它主要为偏远地区、海上及发展中区域提供高速互联网与通信服务,弥补传统地面网络覆盖不足,支撑了后续O3B星座组网部署,推动了全球通信网络均衡覆盖发展,在卫星通信商业化进程中具有标志性意义。
| 数据来源 | 国际轨道数据 |
| 星历时间: | 2026-03-06T10:17:37+0800 轨道信息已过期8天 |
| 半长轴: | 14444.02km |
| 偏心率: | 0.0005148 |
| 轨道倾角: | 0.067° |
| 近地点辐角 | 352.329° |
| 升交点赤经 | 7.279° |
| 平近点角 | 0.386° |
| 近地点: | 8058.447km |
| 远地点: | 8073.319km |
| 周期: | 287.933分钟 |
| 每日圈数: | 5.001159 |